Overview Statistics Trail Chart Weather Telemetry Raw packets
 

This is the latest recevied weather packets stored in our database for station/object N5ATR. If no packets are shown the sender has not sent any weather packets the latest 10 day(s).

<< 34 35 36 37 38 39 40 >>
Time Temp. Humidity Pressure Rain* Wind** Luminosity Snow
1788461607 26.67° C 32% 1022.6 hPa 0 mm - 749 W/m² -
1788461303 28.33° C 32% 1023 hPa 0 mm - 668 W/m² -
1788461000 26.67° C 31% 1022.6 hPa 0 mm - 787 W/m² -
1788460700 27.22° C 32% 1023.1 hPa 0 mm - 274 W/m² -
1788460394 26.67° C 33% 1023.4 hPa 0 mm - 856 W/m² -
1788460094 26.11° C 33% 1023 hPa 0 mm - 487 W/m² -
1788459793 26.11° C 33% 1023.3 hPa 0 mm - 885 W/m² -
1788459493 26.11° C 33% 1023.4 hPa 0 mm - 398 W/m² -
1788459189 27.22° C 31% 1023.4 hPa 0 mm - 450 W/m² -
1788458889 26.67° C 32% 1023.4 hPa 0 mm - 495 W/m² -
1788458588 27.78° C 31% 1023.6 hPa 0 mm - 727 W/m² -
1788458288 27.22° C 31% 1023.5 hPa 0 mm - 638 W/m² -
1788457987 27.78° C 31% 1023.5 hPa 0 mm - 678 W/m² -
1788457682 26.11° C 32% 1024 hPa 0 mm - 674 W/m² -
1788457377 26.67° C 32% 1023.5 hPa 0 mm - 680 W/m² -
1788457076 26.11° C 33% 1023.8 hPa 0 mm - 670 W/m² -
1788456773 25.56° C 34% 1023.6 hPa 0 mm - 654 W/m² -
1788456468 26.67° C 32% 1023.6 hPa 0 mm - 653 W/m² -
1788456162 26.67° C 34% 1023.6 hPa 0 mm - 643 W/m² -
1788455857 26.67° C 34% 1023.8 hPa 0 mm - 637 W/m² -
1788455553 26.67° C 33% 1023.8 hPa 0 mm - 651 W/m² -
1788455252 25.56° C 35% 1023.6 hPa 0 mm - 629 W/m² -
1788454948 25.56° C 34% 1023.6 hPa 0 mm - 650 W/m² -
1788454645 25.56° C 36% 1023.4 hPa 0 mm - 558 W/m² -
1788454341 25.56° C 34% 1023.8 hPa 0 mm - 568 W/m² -

* Rain latest hour (hover to see other rain measurements)
** Current wind speed in m/s (hover to see current wind gust speed)